Location: Allerheiligen
(47.7333°N, 9.4000°E)
Time: 23:21:04
(UTC+00:00)

Cosmos 2219 - Pass Details

Date: 11 December 2025
Orbit: 833 x 858 km, 71.1° (Epoch: 21 April)

Event Time Altitude Azimuth Distance (km) Brightness Sun altitude
Rises 16:16:54 0° 337° (NNW) 3,428 6.3 -7.6°
Reaches altitude 10° 16:19:52 10° 352° (N) 2,493 5.5 -8.1°
Maximum altitude 16:24:25 24° 44° (NE) 1,720 4.3 -8.7°
Drops below altitude 10° 16:28:58 10° 97° (E) 2,492 5.1 -9.4°
Enters shadow 16:31:11 - 109° (ESE) 3,180 5.8 -9.8°
